GW3062 Weather Reports


time (UTC)temp
C
wind
direction
speed
KPH
gust
KPH
rain 1hr
cm
rain 24hr
cm
rain mn
cm
humidity
%
barometer
mb
20260504193517 26 70 1.6 8.0 0.00 0.00 0.00 35 1011.8
20260504193016 26 70 1.6 8.0 0.00 0.00 0.00 34 1011.9
20260504192515 26 47 1.6 4.8 0.00 0.00 0.00 33 1012.0
20260504192027 26 75 3.2 6.4 0.00 0.00 0.00 34 1012.2
20260504191516 26 53 1.6 6.4 0.00 0.00 0.00 34 1012.2
20260504191016 26 46 1.6 4.8 0.00 0.00 0.00 35 1012.2
20260504190527 26 88 3.2 4.8 0.00 0.00 0.00 33 1012.3
20260504190016 26 65 1.6 8.0 0.00 0.00 0.00 34 1012.4
20260504185516 26 73 1.6 8.0 0.00 0.00 0.00 34 1012.3
20260504185016 26 60 0.0 9.7 0.00 0.00 0.00 34 1012.4
20260504184516 27 29 1.6 4.8 0.00 0.00 0.00 35 1012.5
20260504183516 26 39 0.0 6.4 0.00 0.00 0.00 37 1012.6
20260504183016 26 51 1.6 6.4 0.00 0.00 0.00 34 1012.6
20260504182016 26 68 3.2 6.4 0.00 0.00 0.00 34 1012.6
20260504181516 26 82 0.0 6.4 0.00 0.00 0.00 36 1012.7
20260504181016 25 65 1.6 8.0 0.00 0.00 0.00 35 1012.7
20260504180516 25 84 1.6 9.7 0.00 0.00 0.00 35 1012.7
20260504180016 25 53 3.2 9.7 0.00 0.00 0.00 37 1012.7
20260504175516 25 36 3.2 8.0 0.00 0.00 0.00 36 1012.8
20260504175027 25 72 1.6 6.4 0.00 0.00 0.00 36 1012.8
20260504174516 25 83 1.6 6.4 0.00 0.00 0.00 36 1013.0
20260504174016 25 51 1.6 6.4 0.00 0.00 0.00 38 1013.0
20260504173516 25 69 3.2 6.4 0.00 0.00 0.00 35 1013.1
20260504173027 25 79 1.6 14.5 0.00 0.00 0.00 36 1013.0
20260504172515 26 68 3.2 14.5 0.00 0.00 0.00 36 1012.9
20260504172028 26 68 0.0 3.2 0.00 0.00 0.00 35 1013.0
20260504171516 26 84 1.6 3.2 0.00 0.00 0.00 34 1013.3
20260504171016 26 75 0.0 4.8 0.00 0.00 0.00 37 1013.4
20260504170516 25 79 1.6 4.8 0.00 0.00 0.00 36 1013.4
20260504151016 22 71 0.0 4.8 0.00 0.00 0.00 43 1014.7
20260504150516 21 78 1.6 4.8 0.00 0.00 0.00 42 1014.9
20260504141016 18 71 1.6 3.2 0.00 0.00 0.00 55 1014.6
20260504140517 18 75 0.0 3.2 0.00 0.00 0.00 57 1014.7
20260504130517 14 64 0.0 1.6 0.00 0.00 0.00 71 1014.8
20260504110516 3 66 0.0 0.0 0.00 0.00 0.00 97 1014.5
20260504100517 3 63 0.0 0.0 0.00 0.00 0.00 96 1014.6
20260504081517 3 63 0.0 0.0 0.00 0.00 0.00 95 1014.4
20260504081017 3 63 0.0 0.0 0.00 0.00 0.00 95 1014.4
20260504080517 3 63 0.0 0.0 0.00 0.00 0.00 94 1014.4
20260504050528 5 63 0.0 0.0 0.00 0.00 0.00 90 1014.6
20260504050017 5 63 0.0 0.0 0.00 0.00 0.00 90 1014.7
20260504045517 5 63 0.0 0.0 0.00 0.00 0.00 90 1014.6
20260504045017 5 63 0.0 0.0 0.00 0.00 0.00 90 1014.5
20260504044528 5 63 0.0 0.0 0.00 0.00 0.00 90 1014.6
20260504044018 6 63 0.0 0.0 0.00 0.00 0.00 91 1014.5
20260504043518 5 63 0.0 0.0 0.00 0.00 0.00 91 1014.5
20260504043017 5 63 0.0 0.0 0.00 0.00 0.00 89 1014.4
20260504042528 5 63 0.0 0.0 0.00 0.00 0.00 89 1014.3
20260504042018 6 63 0.0 0.0 0.00 0.00 0.00 89 1014.3
20260504041517 6 63 0.0 0.0 0.00 0.00 0.00 89 1014.4
20260504041017 6 63 0.0 0.0 0.00 0.00 0.00 89 1014.4
20260504040517 6 63 0.0 0.0 0.00 0.00 0.00 89 1014.5
20260504040017 6 63 0.0 0.0 0.00 0.00 0.00 88 1014.5
20260504035517 6 63 0.0 0.0 0.00 0.00 0.00 88 1014.5
20260504035017 6 63 0.0 0.0 0.00 0.00 0.00 88 1014.4
20260504034517 6 63 0.0 0.0 0.00 0.00 0.00 88 1014.4
20260504034017 6 63 0.0 0.0 0.00 0.00 0.00 87 1014.5
20260504033517 6 63 0.0 0.0 0.00 0.00 0.00 86 1014.5
20260504033017 6 63 0.0 0.0 0.00 0.00 0.00 86 1014.6
20260504032518 6 63 0.0 0.0 0.00 0.00 0.00 86 1014.6
20260504032028 6 63 0.0 0.0 0.00 0.00 0.00 85 1014.6
20260504031517 6 63 0.0 0.0 0.00 0.00 0.00 85 1014.5
20260504031028 6 63 0.0 0.0 0.00 0.00 0.00 85 1014.5
20260504030517 7 63 0.0 0.0 0.00 0.00 0.00 84 1014.6
20260504030017 7 63 0.0 0.0 0.00 0.00 0.00 84 1014.6
20260504025518 7 63 0.0 0.0 0.00 0.00 0.00 84 1014.6
20260504025017 7 63 0.0 0.0 0.00 0.00 0.00 83 1014.7
20260504024518 7 63 0.0 0.0 0.00 0.00 0.00 82 1014.5
20260504024017 7 63 0.0 0.0 0.00 0.00 0.00 82 1014.5
20260504023517 7 63 0.0 0.0 0.00 0.00 0.00 81 1014.5
20260504023017 7 63 0.0 0.0 0.00 0.00 0.00 80 1014.5
20260504022518 7 63 0.0 0.0 0.00 0.00 0.00 79 1014.4
20260504022017 7 63 0.0 0.0 0.00 0.00 0.00 79 1014.4
20260504021517 7 63 0.0 0.0 0.00 0.00 0.00 79 1014.3
20260504021017 8 63 0.0 0.0 0.00 0.00 0.00 77 1014.3
20260504020517 8 63 0.0 0.0 0.00 0.00 0.00 77 1014.3
20260504020018 8 63 0.0 0.0 0.00 0.00 0.00 76 1014.2
20260504015528 8 63 0.0 0.0 0.00 0.00 0.00 76 1014.2
20260504015018 8 63 0.0 0.0 0.00 0.00 0.00 75 1014.1
20260504014028 8 63 0.0 0.0 0.00 0.00 0.00 71 1013.9
20260504013018 9 63 0.0 0.0 0.00 0.00 0.00 71 1013.8
20260504012018 10 63 0.0 0.0 0.00 0.00 0.00 70 1013.8
20260504011017 10 63 0.0 0.0 0.00 0.00 0.00 67 1013.6
20260504010018 10 63 0.0 0.0 0.00 0.00 0.00 65 1013.6
20260504005018 11 63 0.0 0.0 0.00 0.00 0.00 63 1013.6
20260504004518 11 63 0.0 0.0 0.00 0.00 0.00 61 1013.5
20260504004017 11 63 0.0 0.0 0.00 0.00 0.00 60 1013.4
20260504003518 11 63 0.0 0.0 0.00 0.00 0.00 59 1013.4
20260504003018 11 63 0.0 0.0 0.00 0.00 0.00 59 1013.3
20260504002518 12 63 0.0 0.0 0.00 0.00 0.00 58 1013.2
20260504002018 12 63 0.0 0.0 0.00 0.00 0.00 57 1013.2
20260504001018 13 63 0.0 0.0 0.00 0.00 0.00 56 1013.1
20260504000518 13 63 0.0 0.0 0.00 0.00 0.00 55 1013.1
20260504000019 13 63 0.0 0.0 0.00 0.00 0.00 54 1013.1
20260503235518 13 63 0.0 0.0 0.00 0.00 0.00 53 1013.1
20260503233519 15 63 0.0 1.6 0.00 0.00 0.00 48 1013.1
20260503233018 15 63 0.0 0.0 0.00 0.00 0.00 48 1013.2
20260503232518 15 63 0.0 1.6 0.00 0.00 0.00 45 1013.1
20260503232029 16 63 0.0 3.2 0.00 0.00 0.00 42 1013.2
20260503231518 16 64 0.0 0.0 0.00 0.00 0.00 40 1013.1
20260503231018 16 64 0.0 0.0 0.00 0.00 0.00 39 1013.1
20260503230518 16 64 0.0 1.6 0.00 0.00 0.00 38 1013.0
20260503230018 16 64 0.0 1.6 0.00 0.00 0.00 38 1013.1
20260503225518 16 64 0.0 0.0 0.00 0.00 0.00 37 1013.1
20260503224518 17 64 0.0 1.6 0.00 0.00 0.00 35 1013.2
20260503223518 17 60 0.0 6.4 0.00 0.00 0.00 36 1013.3
20260503223018 17 49 1.6 4.8 0.00 0.00 0.00 35 1013.4
20260503222518 17 57 0.0 3.2 0.00 0.00 0.00 36 1013.4
20260503222018 17 56 0.0 8.0 0.00 0.00 0.00 34 1013.4
20260503221519 17 43 3.2 8.0 0.00 0.00 0.00 34 1013.4
20260503221019 17 74 3.2 4.8 0.00 0.00 0.00 35 1013.4
20260503220518 17 49 1.6 4.8 0.00 0.00 0.00 35 1013.5
20260503220018 17 62 0.0 8.0 0.00 0.00 0.00 35 1013.6
20260503215518 17 25 1.6 8.0 0.00 0.00 0.00 34 1013.6
20260503215018 17 77 1.6 4.8 0.00 0.00 0.00 34 1013.7
20260503214518 17 57 0.0 8.0 0.00 0.00 0.00 34 1013.8
20260503214029 17 68 4.8 9.7 0.00 0.00 0.00 34 1013.9
20260503213521 18 49 1.6 4.8 0.00 0.00 0.00 35 1013.9
20260503213018 18 57 0.0 4.8 0.00 0.00 0.00 33 1013.9
20260503212529 18 56 0.0 4.8 0.00 0.00 0.00 34 1014.0
20260503212018 18 120 1.6 4.8 0.00 0.00 0.00 32 1014.0
20260503211518 18 39 3.2 12.9 0.00 0.00 0.00 33 1014.0
20260503211018 18 53 4.8 12.9 0.00 0.00 0.00 31 1014.0
20260503210518 18 56 0.0 3.2 0.00 0.00 0.00 33 1014.1
20260503210018 18 59 0.0 3.2 0.00 0.00 0.00 32 1014.1
20260503205518 18 78 0.0 6.4 0.00 0.00 0.00 31 1014.1
20260503205018 17 57 1.6 6.4 0.00 0.00 0.00 32 1014.2
20260503204518 17 70 1.6 4.8 0.00 0.00 0.00 34 1014.3
20260503204029 17 74 0.0 6.4 0.00 0.00 0.00 33 1014.2
20260503203529 17 53 1.6 8.0 0.00 0.00 0.00 33 1014.4
20260503203018 17 50 4.8 8.0 0.00 0.00 0.00 31 1014.4
20260503202518 17 60 1.6 6.4 0.00 0.00 0.00 33 1014.5
20260503200518 18 46 1.6 4.8 0.00 0.00 0.00 32 1014.7
20260503200018 18 110 1.6 8.0 0.00 0.00 0.00 28 1014.8
20260503195518 18 50 4.8 8.0 0.00 0.00 0.00 29 1015.0
20260503195018 19 77 1.6 4.8 0.00 0.00 0.00 29 1014.9
20260503194518 19 75 3.2 4.8 0.00 0.00 0.00 28 1015.0
20260503194018 19 103 1.6 4.8 0.00 0.00 0.00 29 1015.0